Wind_Speed
42 45 49 54 57 69 79 88 101 98 105 110 112 114 115 114 113 112 112 114 113 113 116 117 114 114 115 122 123 111 111 121 128 125 110 102 97 88 78 69 61 57 51 44 40
32 36 42 48 52 58 71 79 80 81 89 101 100 101 104 109 111 113 111 111 111 114 111 110 109 114 114 117 115 121 111 110 104 101 89 73 63 55 45 38 37 32 27 24 20
34 37 40 42 44 46 50 55 58 64 72 80 84 92 94 100 103 103 103 106 108 110 111 107 98 106 109 110 90 97 104 82 63 55 51 44 37 33 25 20 12 13 12 11 9
35 35 36 37 38 41 40 41 47 53 63 72 82 85 87 88 93 94 100 103 107 109 104 105 101 107 92 72 51 37 37 30 27 26 20 13 6 5 8 14 19 21 26 28 29
27 26 30 32 32 32 34 40 43 47 53 55 61 65 72 75 79 77 82 73 92 98 100 97 72 42 36 15 15 15 12 4 10 6 10 16 18 20 26 28 30 34 37 42 40
30 32 31 33 32 33 35 32 32 36 36 38 42 40 42 43 45 46 52 50 47 39 25 19 6 6 10 10 10 9 12 13 16 21 23 23 26 29 28 33 37 38 39 38 38
31 30 26 27 26 30 27 24 24 23 21 20 16 17 19 21 19 19 17 7 9 4 7 6 9 14 15 12 12 14 16 18 20 26 27 31 31 32 31 33 36 36 36 36 37
26 25 25 26 27 19 20 20 15 9 9 11 11 13 14 12 9 4 1 4 5 8 13 14 15 12 9 10 11 13 15 13 23 26 27 27 29 28 28 28 29 32 31 32 33
24 24 22 19 20 20 18 12 5 6 8 9 9 11 10 8 3 2 4 5 9 10 14 13 10 7 8 9 7 12 12 14 19 19 20 20 19 20 19 20 24 26 27 30 32
17 21 21 18 14 12 11 7 5 7 8 8 9 10 10 6 3 3 5 6 9 9 11 7 10 8 8 7 7 6 8 10 13 13 12 12 14 16 18 20 19 20 23 25 27
24 21 18 14 15 14 10 6 5 7 7 8 10 10 9 7 4 5 4 9 7 5 4 6 9 8 8 8 6 8 8 6 7 8 9 9 9 11 12 12 15 18 22 21 24
23 19 14 12 11 8 7 4 4 6 7 9 10 11 9 10 6 8 8 9 8 6 3 5 5 4 4 3 5 3 2 3 7 7 9 10 8 6 7 10 16 21 22 25 26
21 15 12 9 7 5 5 6 7 8 10 11 10 12 11 14 15 12 11 9 9 10 6 8 6 4 4 5 3 3 3 10 12 7 6 9 8 14 17 17 14 18 21 25 29
18 13 11 8 8 6 6 8 9 11 11 14 14 13 16 15 19 17 14 13 13 11 10 11 10 8 7 8 9 9 12 15 11 11 14 18 18 12 14 15 18 21 26 30 34
12 10 10 8 6 7 8 9 10 10 12 16 18 17 17 18 19 23 19 14 13 14 15 14 18 15 12 13 13 13 14 15 14 14 15 19 19 10 13 13 14 20 29 29 35
13 11 10 9 8 9 8 9 10 12 16 19 19 17 19 20 21 20 26 19 15 16 16 18 17 16 20 21 22 20 22 16 17 22 19 22 27 32 21 22 19 20 23 27 37
15 15 13 12 10 9 10 10 12 15 18 18 17 17 19 20 22 20 26 27 20 17 16 16 18 20 17 18 16 21 21 22 23 21 26 23 32 36 38 41 38 35 35 41 45
16 14 11 9 9 10 12 13 14 15 18 19 20 21 20 17 22 20 22 32 19 17 17 17 16 20 19 20 21 22 24 22 23 27 31 36 38 43 43 43 43 42 44 48 54
13 11 9 10 9 12 14 15 13 16 19 19 23 24 23 22 19 19 23 29 21 16 16 18 16 18 20 18 21 24 25 27 28 31 33 35 46 51 46 48 47 45 48 50 55
12 13 11 11 11 13 13 14 17 18 18 19 22 22 18 23 19 24 24 24 24 18 18 21 20 20 20 22 25 28 28 32 34 35 36 38 45 51 52 52 55 54 53 63 68
17 16 14 12 12 14 14 14 15 16 16 18 19 20 20 20 17 17 21 26 24 25 24 24 26 25 28 26 29 29 33 31 35 38 42 37 43 50 47 50 55 59 58 65 69
21 19 17 15 13 14 14 15 15 16 17 18 18 18 18 19 16 15 18 24 28 28 31 28 31 38 35 33 34 37 43 44 39 37 43 38 45 56 58 60 62 66 70 73 76
23 22 22 19 16 18 18 18 19 19 18 18 17 17 15 15 16 16 21 27 31 33 35 40 40 42 42 39 40 44 53 56 48 45 46 44 48 57 61 62 65 70 74 78 79
25 26 25 23 21 23 22 20 18 18 17 16 16 15 15 16 16 17 21 26 32 38 40 41 43 40 43 42 38 40 44 48 50 48 47 58 54 64 68 71 74 76 77 78 80
30 30 28 27 27 29 27 26 24 21 18 18 17 18 18 16 16 16 17 18 22 28 26 27 31 29 36 33 35 37 43 48 53 59 59 59 67 69 71 73 75 78 80 84 87
35 34 33 32 32 32 30 32 29 31 27 26 23 24 24 21 22 23 23 23 25 27 27 29 30 32 39 44 44 47 55 56 58 60 62 63 65 70 74 79 83 86 86 90 95
39 38 37 37 36 34 33 32 29 30 34 34 32 28 28 30 29 30 32 33 34 34 38 39 37 36 39 45 47 51 57 56 56 61 64 68 71 73 78 84 86 88 90 94 98
Wind_Direction
210 215 219 224 227 234 238 242 242 243 245 246 249 252 256 257 259 262 264 265 266 269 269 269 275 276 280 278 280 284 287 287 288 288 285 281 280 282 284 283 286 290 286 287 288
201 202 209 214 220 226 231 238 242 245 247 251 254 255 258 261 264 268 268 269 272 272 273 275 285 282 279 281 284 286 290 287 283 282 283 284 281 282 286 292 293 295 298 298 297
186 191 198 205 215 218 225 232 237 244 249 254 255 259 260 265 266 269 268 270 274 279 281 279 283 278 284 290 286 285 291 284 282 283 281 278 281 288 296 306 329 348 358 354 7
176 183 191 194 202 207 217 226 232 241 250 257 259 263 264 264 271 275 276 276 276 279 283 281 283 284 292 289 289 283 283 285 285 286 286 292 293 75 64 46 42 36 43 45 47
169 169 177 184 197 206 215 226 233 239 246 250 256 262 267 270 271 274 276 283 282 284 284 290 279 283 284 294 298 293 292 321 49 65 77 75 64 59 61 64 59 56 56 59 57
168 178 188 193 199 207 217 225 232 243 250 258 264 267 271 278 281 280 278 284 284 280 277 274 287 296 329 332 344 21 37 47 53 64 77 83 81 71 64 64 67 69 65 56 53
176 185 192 197 207 214 221 234 237 242 248 249 266 283 299 302 300 293 279 280 272 322 8 6 355 4 356 2 30 47 59 65 81 88 89 87 82 74 72 67 66 58 55 51 46
193 198 205 211 221 230 197 190 198 218 261 277 297 305 317 311 298 301 163 51 34 9 7 3 1 358 22 59 65 58 50 59 89 91 85 79 74 70 68 57 53 52 49 38 34
205 212 219 209 178 175 175 175 206 264 298 304 306 323 317 298 348 15 43 3 353 351 347 356 17 31 56 86 69 73 108 110 104 93 83 77 71 65 62 48 44 39 30 23 20
203 167 158 162 168 171 172 192 241 278 300 309 318 324 312 291 301 307 7 321 335 333 335 34 80 78 64 63 105 134 139 110 102 86 75 64 51 45 38 43 43 31 19 16 15
157 153 154 154 155 161 175 207 266 301 306 318 319 316 290 269 268 255 304 300 295 309 318 110 107 101 116 145 132 142 95 54 38 37 36 29 21 11 27 18 14 11 6 15 10
156 155 150 147 155 173 188 217 281 292 308 317 317 297 282 262 255 223 273 277 257 263 216 168 164 170 165 149 175 151 112 357 347 2 4 353 8 13 356 9 359 354 2 2 358
162 166 166 165 162 177 210 250 275 293 301 308 301 287 282 259 251 244 264 253 262 251 250 210 221 198 208 208 228 280 338 331 320 318 345 335 317 311 321 333 356 355 350 341 339
177 183 180 178 192 220 245 266 273 283 284 303 303 279 265 259 248 241 245 250 258 230 242 259 261 265 266 291 308 290 284 309 300 280 310 306 300 254 259 300 316 332 333 329 331
202 198 201 213 228 263 266 270 270 270 285 297 300 280 263 261 262 247 245 244 244 242 257 268 268 277 282 291 299 303 292 300 300 285 305 321 310 270 269 281 260 312 321 326 329
205 213 220 234 258 257 260 275 270 285 292 303 298 286 268 257 256 254 244 245 249 257 264 275 283 290 294 299 302 306 311 304 303 306 307 312 317 316 305 303 305 310 313 319 320
207 220 236 259 252 257 271 288 292 290 298 308 299 291 280 270 256 257 240 247 258 250 263 265 280 286 288 298 304 306 305 307 304 304 305 300 306 301 302 305 309 310 312 317 319
217 227 244 250 252 274 275 288 300 295 303 308 312 296 280 276 262 260 237 241 250 247 254 265 268 284 297 298 304 305 299 294 293 303 312 318 313 306 309 309 307 312 310 312 317
235 235 247 249 263 276 282 282 294 304 298 313 317 313 283 268 276 258 238 231 242 232 252 276 270 273 287 290 293 294 292 291 287 292 295 303 307 305 307 309 307 304 303 309 308
236 235 248 260 265 273 279 286 290 297 302 306 319 316 294 287 276 269 248 231 243 244 266 272 279 282 286 291 293 294 294 295 293 294 293 296 299 295 302 303 302 302 312 316 314
240 239 245 263 269 275 284 287 291 294 304 303 316 320 304 308 292 267 256 238 239 257 268 268 275 294 296 289 293 291 292 300 300 294 290 290 296 299 295 299 303 306 306 303 302
244 242 248 258 267 269 283 279 286 299 304 314 314 318 313 308 300 286 258 242 247 255 263 271 288 295 292 288 287 293 294 299 298 287 295 300 301 305 303 304 305 306 307 306 306
247 245 249 253 265 270 278 281 284 291 300 307 311 319 312 308 301 284 273 247 249 257 265 271 290 295 295 294 295 291 294 297 305 304 301 300 299 301 302 303 304 304 305 307 312
245 245 249 251 260 265 268 276 281 287 292 302 311 308 313 315 307 297 281 273 263 265 271 279 286 291 291 295 301 302 299 305 309 310 308 305 305 303 305 307 307 307 309 310 311
237 243 246 253 261 265 266 272 275 279 286 291 292 298 301 303 301 302 302 297 285 281 287 291 291 301 298 302 305 302 299 303 307 310 311 309 311 312 314 316 313 312 312 311 310
243 246 249 254 261 270 270 274 272 272 277 282 285 288 287 289 295 296 293 296 295 293 293 295 299 304 308 308 309 307 303 303 305 305 306 309 313 314 312 312 312 310 309 310 310
245 250 253 255 259 267 269 270 272 270 273 274 281 281 284 286 287 290 291 290 290 294 297 295 293 291 294 297 299 300 299 302 304 304 305 307 306 305 308 309 308 307 308 307 306
Height
10665 10678 10686 10694 10700 10710 10720 10728 10729 10735 10741 10746 10746 10753 10756 10760 10761 10761 10765 10763 10767 10770 10772 10772 10772 10770 10766 10764 10758 10752 10743 10735 10728 10723 10713 10705 10699 10694 10684 10677 10677 10673 10670 10662 10657
10664 10673 10681 10690 10698 10706 10712 10722 10726 10729 10734 10736 10741 10745 10748 10754 10751 10752 10753 10752 10752 10753 10758 10755 10756 10754 10747 10746 10737 10730 10721 10714 10706 10702 10695 10689 10686 10680 10673 10667 10668 10664 10663 10656 10652
10664 10673 10681 10691 10699 10706 10711 10715 10718 10722 10725 10731 10733 10738 10743 10748 10744 10741 10740 10741 10743 10743 10743 10745 10740 10738 10733 10723 10715 10712 10707 10696 10689 10687 10682 10680 10677 10674 10670 10666 10664 10659 10654 10652 10651
10668 10675 10683 10691 10697 10702 10705 10710 10713 10717 10722 10727 10730 10731 10731 10736 10734 10731 10730 10734 10730 10732 10734 10734 10729 10723 10714 10706 10695 10692 10692 10686 10682 10679 10677 10674 10671 10669 10668 10665 10659 10658 10655 10650 10648
10672 10679 10685 10691 10697 10702 10707 10711 10715 10717 10721 10722 10722 10723 10721 10722 10723 10723 10718 10717 10717 10718 10721 10719 10715 10709 10707 10698 10696 10690 10686 10682 10680 10677 10674 10671 10671 10669 10669 10666 10663 10660 10656 10655 10652
10675 10681 10687 10693 10698 10701 10706 10710 10711 10712 10716 10715 10717 10717 10717 10717 10716 10717 10716 10714 10712 10710 10709 10708 10704 10703 10698 10695 10692 10688 10684 10680 10679 10677 10676 10674 10672 10671 10672 10668 10665 10662 10661 10659 10657
10678 10684 10688 10692 10696 10701 10704 10707 10708 10709 10708 10712 10713 10712 10712 10711 10711 10710 10709 10707 10708 10707 10705 10704 10700 10696 10695 10692 10690 10688 10686 10684 10682 10679 10679 10675 10674 10672 10672 10671 10668 10665 10661 10660 10658
10678 10683 10688 10691 10694 10698 10701 10703 10704 10705 10707 10708 10708 10709 10708 10707 10707 10706 10706 10705 10705 10704 10703 10700 10696 10695 10694 10693 10692 10690 10687 10688 10684 10681 10680 10676 10675 10674 10672 10672 10668 10665 10663 10661 10658
10679 10683 10686 10689 10693 10696 10698 10700 10702 10703 10703 10704 10705 10705 10706 10705 10704 10704 10703 10702 10702 10701 10699 10697 10695 10695 10694 10693 10692 10690 10691 10690 10687 10683 10680 10678 10677 10676 10674 10670 10666 10663 10661 10657 10655
10678 10682 10685 10688 10691 10694 10697 10699 10700 10701 10701 10701 10702 10703 10703 10702 10701 10701 10701 10700 10699 10698 10698 10696 10696 10697 10695 10694 10694 10694 10693 10690 10687 10684 10681 10680 10677 10674 10671 10669 10666 10663 10660 10657 10654
10677 10681 10685 10688 10691 10693 10696 10698 10698 10698 10698 10699 10699 10699 10698 10699 10699 10698 10699 10698 10697 10697 10698 10697 10697 10697 10697 10696 10695 10694 10692 10689 10687 10684 10681 10679 10676 10673 10669 10667 10664 10662 10659 10655 10652
10676 10680 10683 10686 10689 10692 10694 10695 10696 10697 10696 10696 10696 10696 10695 10695 10695 10696 10696 10697 10696 10696 10697 10697 10697 10697 10696 10695 10694 10693 10690 10689 10686 10683 10680 10677 10674 10671 10667 10665 10661 10657 10653 10648 10644
10676 10679 10683 10685 10688 10690 10692 10693 10694 10694 10695 10694 10693 10692 10692 10692 10693 10693 10694 10694 10694 10694 10695 10696 10697 10696 10696 10695 10693 10691 10689 10688 10685 10682 10679 10676 10674 10670 10665 10661 10660 10657 10652 10647 10642
10676 10679 10682 10684 10687 10688 10690 10691 10692 10692 10692 10691 10690 10690 10689 10689 10690 10690 10691 10692 10692 10692 10693 10693 10694 10694 10694 10693 10691 10689 10686 10684 10682 10679 10676 10673 10668 10668 10665 10661 10656 10651 10647 10643 10639
10676 10679 10681 10683 10685 10686 10688 10689 10689 10689 10689 10688 10687 10686 10686 10685 10686 10687 10688 10689 10689 10690 10690 10691 10690 10690 10690 10688 10687 10686 10683 10681 10677 10675 10673 10668 10663 10660 10658 10655 10653 10650 10644 10640 10635
10676 10678 10680 10682 10683 10684 10685 10686 10686 10686 10685 10684 10682 10681 10681 10681 10681 10683 10684 10686 10686 10687 10687 10687 10686 10685 10684 10683 10682 10680 10677 10675 10673 10670 10667 10663 10658 10649 10647 10646 10644 10642 10639 10635 10628
10674 10676 10678 10679 10681 10682 10683 10683 10683 10683 10681 10680 10678 10677 10675 10676 10676 10677 10680 10680 10682 10683 10684 10684 10682 10681 10682 10678 10677 10675 10673 10670 10667 10665 10661 10658 10654 10647 10643 10638 10634 10630 10626 10623 10617
10671 10673 10674 10676 10678 10679 10679 10679 10679 10678 10677 10676 10675 10673 10671 10671 10670 10672 10675 10675 10678 10679 10680 10679 10680 10677 10675 10674 10671 10669 10667 10666 10663 10661 10656 10647 10642 10632 10635 10631 10627 10623 10618 10612 10606
10668 10670 10672 10673 10674 10675 10675 10675 10675 10674 10673 10672 10670 10669 10666 10666 10667 10668 10668 10671 10672 10675 10676 10674 10674 10673 10671 10670 10667 10664 10662 10660 10659 10656 10654 10648 10633 10620 10628 10621 10616 10615 10610 10607 10597
10665 10667 10669 10670 10670 10671 10672 10671 10671 10670 10669 10668 10666 10664 10664 10660 10664 10662 10665 10667 10670 10672 10672 10671 10669 10669 10667 10665 10662 10658 10657 10653 10651 10649 10647 10642 10630 10618 10615 10612 10603 10601 10597 10585 10578
10661 10663 10665 10667 10668 10668 10668 10668 10667 10666 10666 10664 10663 10661 10659 10658 10657 10658 10659 10663 10666 10665 10666 10665 10663 10663 10661 10658 10655 10652 10647 10646 10644 10640 10637 10635 10627 10616 10611 10605 10598 10591 10592 10582 10574
10656 10659 10661 10663 10664 10664 10664 10664 10664 10663 10662 10661 10660 10658 10656 10655 10654 10655 10656 10658 10660 10660 10660 10659 10658 10655 10655 10653 10649 10643 10636 10633 10633 10632 10626 10626 10620 10605 10600 10595 10590 10582 10573 10563 10555
10651 10654 10656 10658 10659 10660 10660 10660 10660 10659 10659 10658 10657 10655 10653 10652 10651 10652 10652 10654 10654 10653 10654 10653 10652 10649 10644 10646 10643 10636 10624 10620 10624 10622 10617 10613 10609 10597 10590 10586 10578 10569 10559 10548 10539
10646 10648 10650 10652 10654 10654 10655 10655 10655 10655 10654 10654 10653 10652 10651 10650 10649 10648 10648 10646 10648 10648 10647 10647 10645 10644 10638 10636 10634 10631 10618 10609 10607 10609 10610 10593 10598 10585 10579 10573 10565 10555 10543 10535 10527
10639 10642 10644 10646 10648 10648 10649 10650 10650 10650 10650 10650 10649 10648 10647 10647 10645 10644 10643 10641 10641 10640 10641 10640 10636 10636 10630 10629 10627 10622 10614 10607 10600 10593 10591 10590 10576 10571 10562 10555 10544 10536 10528 10518 10510
10632 10635 10637 10640 10641 10642 10644 10644 10645 10644 10645 10644 10644 10644 10641 10642 10640 10639 10638 10637 10635 10634 10634 10633 10631 10629 10624 10616 10615 10610 10598 10597 10593 10587 10580 10574 10568 10554 10546 10538 10529 10517 10511 10500 10488
10626 10629 10630 10632 10633 10634 10636 10636 10637 10637 10637 10637 10637 10636 10637 10635 10634 10633 10632 10630 10629 10627 10625 10623 10623 10622 10620 10613 10608 10598 10586 10588 10584 10573 10568 10564 10556 10548 10538 10526 10514 10500 10494 10484 10472